This is the latest recevied weather packets stored in our database for station/object N9BID. If no packets are shown the sender has not sent any weather packets the latest 10 day(s).
| Time | Temp. | Humidity | Pressure | Rain* | Wind** | Luminosity | Snow |
|---|---|---|---|---|---|---|---|
| 1777590026 | 6.67° C | 58% | 1007.6 hPa | 0 mm | - | 71 W/m² | - |
| 1777589722 | 6.67° C | 58% | 1007.4 hPa | 0 mm | - | 85 W/m² | - |
| 1777589421 | 6.67° C | 58% | 1007.5 hPa | 0 mm | - | 92 W/m² | - |
| 1777589117 | 6.67° C | 56% | 1007.3 hPa | 0 mm | - | 105 W/m² | - |
| 1777588813 | 7.22° C | 56% | 1007.3 hPa | 0 mm | - | 128 W/m² | - |
| 1777588509 | 6.67° C | 57% | 1007.5 hPa | 0 mm | - | 140 W/m² | - |
| 1777588204 | 6.67° C | 56% | 1007.2 hPa | 0 mm | - | 136 W/m² | - |
| 1777587900 | 6.67° C | 55% | 1007.2 hPa | 0 mm | - | 138 W/m² | - |
| 1777587595 | 6.67° C | 56% | 1007.3 hPa | 0 mm | - | 122 W/m² | - |
| 1777587290 | 7.22° C | 54% | 1007.4 hPa | 0 mm | - | 138 W/m² | - |
| 1777586986 | 7.22° C | 54% | 1007.3 hPa | 0 mm | - | 174 W/m² | - |
| 1777586682 | 7.22° C | 55% | 1007.3 hPa | 0 mm | - | 162 W/m² | - |
| 1777586378 | 7.22° C | 52% | 1007.2 hPa | 0 mm | - | 151 W/m² | - |
| 1777586077 | 7.22° C | 56% | 1007.4 hPa | 0 mm | - | 397 W/m² | - |
| 1777585776 | 7.22° C | 58% | 1007.3 hPa | 0 mm | - | 174 W/m² | - |
| 1777585470 | 7.22° C | 56% | 1007.3 hPa | 0 mm | - | 143 W/m² | - |
| 1777585167 | 7.22° C | 56% | 1007.4 hPa | 0 mm | - | 570 W/m² | - |
| 1777584862 | 7.78° C | 54% | 1007.2 hPa | 0 mm | - | 176 W/m² | - |
| 1777584561 | 7.78° C | 55% | 1007.3 hPa | 0 mm | - | 264 W/m² | - |
| 1777584257 | 7.22° C | 54% | 1007.2 hPa | 0 mm | - | 269 W/m² | - |
| 1777583957 | 7.22° C | 57% | 1007.4 hPa | 0 mm | - | 205 W/m² | - |
| 1777583652 | 7.22° C | 56% | 1007.4 hPa | 0 mm | - | 211 W/m² | - |
| 1777583352 | 7.22° C | 58% | 1007.3 hPa | 0 mm | - | 209 W/m² | - |
| 1777583046 | 7.22° C | 56% | 1007.5 hPa | 0 mm | - | 225 W/m² | - |
| 1777582743 | 7.78° C | 57% | 1007.4 hPa | 0 mm | - | 246 W/m² | - |
* Rain latest hour (hover to see other rain measurements)
** Current wind speed in m/s (hover to see current wind gust speed)